Hourly Data Report for September 03, 2021

TORONTO CITY
ONTARIO
Current Station Operator: ECCC - MSC

43°40'00.000" N
79°24'00.000" W
112.50 m
6158355
71508
XTO

Download Data

Hourly Data (September 2021)
Hourly Data Report for September 3, 2021
TIME
LST
Temp Definition
°C
Dew Point Definition
°C
Rel Hum Definition
%
Precip. Amount Definition
mm

Wind Dir Definition
10's deg

Wind Spd Definition
km/h
Visibility Definition
km
Stn Press Definition
kPa
Hmdx Definition


Wind Chill Definition


Weather Definition


00:00 16.4 10.0 66 0.0       100.65     LegendNANA
01:00 16.3 10.3 68 0.0       100.64     LegendNANA
02:00 15.0 10.0 72 0.0       100.66     LegendNANA
03:00 13.9 10.5 80 0.0       100.66     LegendNANA
04:00 13.2 10.3 83 0.0       100.66     LegendNANA
05:00 14.0 10.5 80 0.0       100.68     LegendNANA
06:00 13.8 10.5 81 0.0       100.72     LegendNANA
07:00 14.8 10.9 77 0.0       100.77     LegendNANA
08:00 16.7 11.4 71 0.0       100.76     LegendNANA
09:00 17.7 11.3 66 0.0       100.79     LegendNANA
10:00 19.2 11.3 60 0.0       100.80     LegendNANA
11:00 19.9 11.5 58 0.0       100.77     LegendNANA
12:00 20.6 11.1 55 0.0       100.73     LegendNANA
13:00 21.1 11.7 55 0.0       100.66     LegendNANA
14:00 21.2 12.3 57 0.0       100.63     LegendNANA
15:00 20.7 12.6 60 0.0       100.59     LegendNANA
16:00 20.5 13.5 64 0.0       100.58     LegendNANA
17:00 20.8 13.4 62 0.0       100.57     LegendNANA
18:00 20.5 13.5 64 0.0       100.55     LegendNANA
19:00 20.0 9.2 50 0.0       100.55     LegendNANA
20:00 18.7 10.6 59 0.0       100.58     LegendNANA
21:00 18.7 9.7 56 0.0       100.57     LegendNANA
22:00 18.5 10.5 60 0.0       100.53     LegendNANA
23:00 17.1 10.8 66 0.0       100.55     LegendNANA

Notes on Data Quality.

Legend

  • E = Estimated
  • M = Missing
  • NA = Not Available*
  • [empty] = Indicates an unobserved value
Date modified: